This demonstration page uses our WeatherBlox Daily Observations layout. Learn more.

Left ArrowRight Arrow

Hourly Observations for November 21, 2016

Temp ( °F °C ) Dew Point ( °F °C ) Humidity (%) Winds ( mph kmh ) Pressure ( in mb ) Visibility ( mi km ) Precip ( " mm )
12:59 am 00:59 Clear 39 3.9 22 -5.6 50 50 W 18 30 29.96 1015 10 16 0.00 0.00
1:59 am 01:59 Clear 38 3.3 22 -5.6 52 52 WNW 18 30 29.97 1015 10 16 0.00 0.00
2:59 am 02:59 Clear 38 3.3 22 -5.6 52 52 W 14 22 29.98 1015 10 16 0.00 0.00
3:59 am 03:59 Clear 38 3.3 22 -5.6 52 52 W 18 30 29.98 1015 10 16 0.00 0.00
4:59 am 04:59 Clear 38 3.3 22 -5.6 52 52 W 20 31 29.98 1015 10 16 0.00 0.00
5:59 am 05:59 Clear 38 3.3 22 -5.6 52 52 WNW 23 37 29.97 1015 10 16 0.00 0.00
6:59 am 06:59 Sunny 38 3.3 22 -5.6 52 52 WNW 16 26 30.00 1016 10 16 0.00 0.00
7:59 am 07:59 Sunny 39 3.9 23 -5 53 53 W 12 19 30.01 1016 10 16 0.00 0.00
8:59 am 08:59 Sunny 39 3.9 22 -5.6 50 50 WSW 12 19 30.03 1017 10 16 0.00 0.00
9:59 am 09:59 Sunny 43 6.1 21 -6.1 42 42 W 20 31 30.04 1017 10 16 0.00 0.00
10:59 am 10:59 Sunny 45 7.2 20 -6.7 37 37 W 16 26 30.03 1017 10 16 0.00 0.00
11:59 am 11:59 Sunny 48 8.9 17 -8.3 29 29 WNW 20 31 30.01 1016 10 16 0.00 0.00
12:59 pm 12:59 Sunny 49 9.4 17 -8.3 28 28 WNW 20 31 29.99 1016 10 16 0.00 0.00
1:59 pm 13:59 Sunny 50 10 16 -8.9 26 26 WNW 21 33 29.97 1015 10 16 0.00 0.00
2:59 pm 14:59 Sunny 50 10 16 -8.9 26 26 W 15 24 29.99 1016 10 16 0.00 0.00
3:59 pm 15:59 Sunny 49 9.4 15 -9.4 26 26 W 12 19 30.00 1016 10 16 0.00 0.00
4:59 pm 16:59 Clear 48 8.9 17 -8.3 29 29 W 13 20 30.01 1016 10 16 0.00 0.00
5:59 pm 17:59 Clear 47 8.3 18 -7.8 31 31 W 10 17 30.03 1017 10 16 0.00 0.00
6:59 pm 18:59 Clear 44 6.7 20 -6.7 38 38 WSW 6 9 30.04 1017 10 16 0.00 0.00
7:59 pm 19:59 Clear 44 6.7 21 -6.1 40 40 WSW 7 11 30.04 1017 10 16 0.00 0.00
8:59 pm 20:59 Clear 44 6.7 24 -4.4 45 45 W 13 20 30.07 1018 10 16 0.00 0.00
9:59 pm 21:59 Clear 42 5.6 23 -5 47 47 NNW 13 20 30.09 1019 10 16 0.00 0.00
10:59 pm 22:59 Clear 41 5 18 -7.8 39 39 NNW 18 30 30.10 1019 10 16 0.00 0.00
11:59 pm 23:59 Clear 39 3.9 19 -7.2 45 45 NW 12 19 30.13 1020 10 16 0.00 0.00

Powered by AerisWeather